TimeCDT,TemperatureF,Dew PointF,Humidity,Sea Level PressureIn,VisibilityMPH,Wind Direction,Wind SpeedMPH,Gust SpeedMPH,PrecipitationIn,Events,Conditions,WindDirDegrees,DateUTC
12:53 AM,70.0,61.0,73,30.00,10.0,West,3.5,-,N/A,,Clear,270,2013-05-20 05:53:00
1:53 AM,69.1,61.0,75,30.01,10.0,Calm,Calm,-,N/A,,Clear,0,2013-05-20 06:53:00
2:53 AM,69.8,62.6,78,30.04,10.0,Calm,Calm,-,N/A,,Clear,0,2013-05-20 07:53:00
3:53 AM,68.0,63.0,84,30.02,10.0,Calm,Calm,-,N/A,,Clear,0,2013-05-20 08:53:00
4:53 AM,66.0,63.0,90,30.02,10.0,Calm,Calm,-,N/A,,Clear,0,2013-05-20 09:53:00
5:53 AM,64.4,62.6,94,30.05,9.0,Calm,Calm,-,N/A,,Clear,0,2013-05-20 10:53:00
6:16 AM,66.2,62.6,88,30.06,10.0,Calm,Calm,-,N/A,,Partly Cloudy,0,2013-05-20 11:16:00
6:48 AM,68.0,64.4,88,30.07,10.0,Calm,Calm,-,N/A,,Mostly Cloudy,0,2013-05-20 11:48:00
6:53 AM,68.0,64.4,88,30.07,10.0,Calm,Calm,-,N/A,,Mostly Cloudy,0,2013-05-20 11:53:00
7:53 AM,71.1,66.0,84,30.07,10.0,SSE,5.8,-,N/A,,Overcast,150,2013-05-20 12:53:00
8:53 AM,73.0,66.0,79,30.09,10.0,Variable,5.8,-,N/A,,Overcast,0,2013-05-20 13:53:00
9:14 AM,73.4,66.2,78,30.11,7.0,WSW,6.9,-,N/A,,Overcast,240,2013-05-20 14:14:00
9:53 AM,75.0,66.9,76,30.10,9.0,SW,6.9,-,N/A,,Overcast,230,2013-05-20 14:53:00
10:53 AM,77.0,66.0,69,30.09,10.0,South,8.1,-,N/A,,Mostly Cloudy,180,2013-05-20 15:53:00
11:01 AM,78.8,66.2,65,30.11,10.0,South,5.8,-,N/A,,Mostly Cloudy,170,2013-05-20 16:01:00
11:18 AM,78.8,66.2,65,30.11,10.0,SSE,6.9,-,N/A,,Mostly Cloudy,160,2013-05-20 16:18:00
11:29 AM,78.8,66.2,65,30.11,10.0,South,5.8,-,N/A,,Mostly Cloudy,170,2013-05-20 16:29:00
11:37 AM,78.8,66.2,65,30.10,10.0,Variable,3.5,-,N/A,,Mostly Cloudy,0,2013-05-20 16:37:00
11:53 AM,79.0,68.0,69,30.08,10.0,SE,5.8,-,N/A,,Mostly Cloudy,140,2013-05-20 16:53:00
12:00 PM,78.8,66.2,65,30.10,10.0,Variable,4.6,-,N/A,,Mostly Cloudy,0,2013-05-20 17:00:00
12:13 PM,78.8,66.2,65,30.10,10.0,Variable,4.6,-,N/A,,Mostly Cloudy,0,2013-05-20 17:13:00
12:53 PM,81.0,66.9,62,30.06,10.0,SSW,5.8,-,N/A,,Mostly Cloudy,200,2013-05-20 17:53:00
1:53 PM,82.9,66.0,56,30.05,10.0,Variable,4.6,-,N/A,,Mostly Cloudy,0,2013-05-20 18:53:00
2:53 PM,84.0,66.9,56,30.03,10.0,SE,9.2,-,N/A,,Partly Cloudy,140,2013-05-20 19:53:00
3:53 PM,84.0,66.0,55,30.02,10.0,Variable,4.6,-,N/A,,Scattered Clouds,0,2013-05-20 20:53:00
4:53 PM,84.0,66.9,56,30.00,10.0,ESE,12.7,-,N/A,,Scattered Clouds,120,2013-05-20 21:53:00
5:53 PM,82.9,66.9,58,29.99,10.0,SE,9.2,-,N/A,,Clear,130,2013-05-20 22:53:00
6:53 PM,81.0,66.0,60,29.99,10.0,SE,4.6,-,N/A,,Partly Cloudy,140,2013-05-20 23:53:00
7:53 PM,79.0,66.9,66,29.99,10.0,SE,5.8,-,N/A,,Clear,130,2013-05-21 00:53:00
9:53 PM,77.0,66.0,69,29.99,10.0,SE,5.8,-,N/A,,Clear,130,2013-05-21 02:53:00
10:53 PM,75.9,66.0,71,30.01,10.0,SE,4.6,-,N/A,,Clear,140,2013-05-21 03:53:00
11:53 PM,73.9,66.0,76,30.00,10.0,SE,4.6,-,N/A,,Clear,140,2013-05-21 04:53:00